Location: Campillo
(40.8621°N, 4.2488°W)
Time: 12:42:31
(UTC+00:00)

Resurs 1-3 - Pass Details

Date: 11 May 2021
Orbit: 630 x 631 km, 97.9° (Epoch: 14 June)

Event Time Altitude Azimuth Distance (km) Brightness Sun altitude
Exits shadow 20:53:24 10° 184° (S) 1,996 5.8 -15.0°
Maximum altitude 20:57:38 51° 260° (W) 794 4.3 -15.6°
Drops below altitude 10° 21:01:56 10° 337° (NNW) 2,020 7.2 -16.2°
Sets 21:04:12 0° 343° (NNW) 2,933 8.1 -16.5°
